Weather History for KJLN - February, 2014

Change the Weather History Date:

Sunday, February 16, 2014

  Actual Average Record
Temperature  
Mean Temperature 40 °F 40 °F  
Max Temperature 55 °F 51 °F 81 °F (1961)
Min Temperature 25 °F 29 °F 4 °F (1958)
Degree Days  
Heating Degree Days 25 25  
Month to date heating degree days 637 430  
Since 1 July heating degree days 3569 2979  
Cooling Degree Days 0 0  
Month to date cooling degree days 0 0  
Year to date cooling degree days 0 0  
Moisture  
Dew Point 29 °F    
Average Humidity 64    
Maximum Humidity 92    
Minimum Humidity 35    
Precipitation  
Precipitation 0.00 in 0.08 in 1.19 in (2008)
Month to date precipitation 0.20 1.22  
Year to date precipitation 0.79 3.25  
Sea Level Pressure  
Sea Level Pressure 30.05 in    
Wind  
Wind Speed 8 mph (ESE)    
Max Wind Speed 21 mph    
Max Gust Speed 30 mph    
Visibility 10 miles    
Events      
T = Trace of Precipitation, MM = Missing Value Source: NWS Daily Summary

Daily Weather History Graph

Daily Weather History Graph

Search for Another Location

Airport or City:

Trip Planner

Search our weather history database for the weather conditions in past years. The results will help you decide how hot, cold, wet, or windy it might be!

Date:

Astronomy

Feb. 16, 2014 Rise Set
Actual Time 7:05 AM CST 5:59 PM CST
Civil Twilight 6:39 AM CST 6:25 PM CST
Nautical Twilight 6:08 AM CST 6:56 PM CST
Astronomical Twilight 5:38 AM CST 7:26 PM CST
Moon 7:52 PM CST (2/16) 7:38 AM CST (2/16)
Length of Visible Light 11h 46m
Length of Day
10h 53m
Full, 97% of the Moon is Illuminated
Feb 16
Full
Feb 22
Last Quarter
Mar 1
New
Mar 8
First Quarter
Mar 16
Full

Hourly Weather History & Observations

Time (CST) Temp. Windchill Dew Point Humidity Pressure Visibility Wind Dir Wind Speed Gust Speed Precip Events Conditions
12:53 AM 34.0 °F 29.8 °F 28.0 °F 79% 30.09 in 10.0 mi West 4.6 mph - N/A   Clear
1:53 AM 39.0 °F - 28.9 °F 67% 30.09 in 10.0 mi Calm Calm - N/A   Clear
2:53 AM 30.9 °F 27.5 °F 26.1 °F 82% 30.09 in 10.0 mi SSW 3.5 mph - N/A   Clear
3:53 AM 30.9 °F - 27.0 °F 85% 30.09 in 10.0 mi Calm Calm - N/A   Clear
4:53 AM 30.9 °F - 27.0 °F 85% 30.10 in 10.0 mi Calm Calm - N/A   Clear
5:53 AM 28.9 °F - 26.1 °F 89% 30.13 in 10.0 mi Calm Calm - N/A   Clear
6:53 AM 26.1 °F - 24.1 °F 92% 30.13 in 10.0 mi Calm Calm - N/A   Clear
7:53 AM 30.0 °F - 27.0 °F 88% 30.15 in 10.0 mi Calm Calm - N/A   Clear
8:53 AM 37.9 °F 32.7 °F 30.0 °F 73% 30.15 in 10.0 mi NE 6.9 mph - N/A   Clear
9:53 AM 42.1 °F 37.7 °F 30.9 °F 65% 30.16 in 10.0 mi Variable 6.9 mph - N/A   Clear
10:53 AM 45.0 °F 41.2 °F 32.0 °F 60% 30.15 in 10.0 mi ENE 6.9 mph - N/A   Clear
11:53 AM 46.0 °F 41.9 °F 32.0 °F 58% 30.14 in 10.0 mi East 8.1 mph - N/A   Clear
12:53 PM 50.0 °F - 32.0 °F 50% 30.12 in 10.0 mi East 5.8 mph - N/A   Clear
1:53 PM 51.1 °F - 30.9 °F 46% 30.08 in 10.0 mi East 8.1 mph - N/A   Clear
2:53 PM 53.1 °F - 30.0 °F 41% 30.05 in 10.0 mi ESE 10.4 mph - N/A   Clear
3:53 PM 54.0 °F - 28.9 °F 38% 30.03 in 10.0 mi East 11.5 mph - N/A   Clear
4:53 PM 55.0 °F - 28.0 °F 35% 29.99 in 10.0 mi ESE 12.7 mph - N/A   Clear
5:53 PM 51.1 °F - 28.9 °F 43% 29.98 in 10.0 mi East 8.1 mph - N/A   Clear
6:53 PM 50.0 °F - 28.9 °F 44% 29.98 in 10.0 mi ESE 10.4 mph - N/A   Clear
7:53 PM 48.0 °F - 27.0 °F 44% 29.96 in 10.0 mi ESE 11.5 mph - N/A   Clear
8:53 PM 48.0 °F - 28.0 °F 46% 29.94 in 10.0 mi SE 13.8 mph 19.6 mph N/A   Clear
9:53 PM 48.9 °F - 28.0 °F 44% 29.91 in 10.0 mi SE 16.1 mph - N/A   Overcast
10:53 PM 50.0 °F - 28.0 °F 43% 29.87 in 10.0 mi SE 19.6 mph 27.6 mph N/A   Overcast
11:53 PM 48.9 °F - 28.9 °F 46% 29.85 in 10.0 mi SE 16.1 mph 26.5 mph N/A   Partly Cloudy